Location: Smoky Mountain Stargaze
(35.4252°N, 83.3329°W)
Time: 04:21:36
(UTC-05:00)

Amateur Radio Satellites - All Passes

Search period start: 27 November 2014 03:51
Search period end: 28 November 2014 03:51
Location: Smoky Mountain Stargaze, 35.4252°N, 83.3329°W

Satellite Date Start Highest point End Downlink Frequencies (MHz)
Time Altitude Azimuth
HORYU 2 27 Nov 03:51:52 03:56:23 85° 103° (ESE) 04:00:53 437.375
MOZHAYETS 4 27 Nov 03:53:19 03:56:39 20° 68° (ENE) 03:59:59
YUBILEINY 27 Nov 04:06:58 04:14:51 36° 285° (WNW) 04:22:46 435.215
Gurwin Techsat 1B 27 Nov 04:21:40 04:25:53 25° 293° (WNW) 04:30:05 435.225
SRMSAT 27 Nov 04:32:36 04:35:32 14° 191° (S) 04:38:29 437.500
PRISM 27 Nov 04:43:12 04:44:31 11° 65° (ENE) 04:45:51 437.425
SO-50 27 Nov 04:43:13 04:46:52 24° 309° (NW) 04:50:37 436.795
BEESAT 3 27 Nov 04:44:18 04:47:55 28° 54° (NE) 04:51:30 437.485
BEESAT 2 27 Nov 05:00:30 05:04:24 36° 56° (NE) 05:08:16 435.950
ISS 27 Nov 05:12:09 05:14:25 17° 29° (NNE) 05:16:40 145.825
AO-7 27 Nov 05:15:25 05:23:47 79° 289° (WNW) 05:32:08 29.400- 29.500
PCSat 27 Nov 05:24:03 05:29:30 88° 245° (WSW) 05:34:54 145.827
MOZHAYETS 4 27 Nov 05:29:27 05:33:36 34° 263° (W) 05:37:48
JAS-2 27 Nov 05:31:07 05:37:53 57° 99° (E) 05:43:48 435.910
CUTE-I 27 Nov 05:34:20 05:36:15 12° 91° (E) 05:38:10 437.470
CUBESAT XI-V 27 Nov 05:38:03 05:41:19 19° 68° (ENE) 05:44:36 437.345
AIST 2 27 Nov 05:40:00 05:44:10 47° 57° (ENE) 05:48:15 435.215
O/OREOS (USA 219) 27 Nov 05:50:16 05:54:42 66° 108° (ESE) 05:59:09 437.305
PRISM 27 Nov 06:15:28 06:19:33 53° 259° (W) 06:23:43 437.425
BEESAT 3 27 Nov 06:22:42 06:26:00 23° 249° (WSW) 06:29:15 437.485
Cubesat XI-IV 27 Nov 06:30:31 06:35:39 48° 100° (E) 06:40:45 437.490
STRAND 1 27 Nov 06:35:24 06:40:32 78° 75° (ENE) 06:45:41 437.568
BEESAT 2 27 Nov 06:39:40 06:42:23 17° 251° (WSW) 06:45:03 435.950
AIST 1 27 Nov 06:41:38 06:45:39 35° 79° (ENE) 06:49:37
ISS 27 Nov 06:48:03 06:51:16 52° 226° (SW) 06:54:28 145.825
AO-7 27 Nov 07:10:46 07:15:15 16° 307° (NW) 07:19:43 29.400- 29.500
CUTE-I 27 Nov 07:11:28 07:16:46 69° 286° (WNW) 07:22:01 437.470
CUBESAT XI-V 27 Nov 07:14:04 07:18:27 38° 262° (W) 07:22:51 437.345
JAS-2 27 Nov 07:17:11 07:22:15 22° 298° (WNW) 07:26:55 435.910
AIST 2 27 Nov 07:20:16 07:22:20 13° 252° (WSW) 07:24:23 435.215
O/OREOS (USA 219) 27 Nov 07:33:21 07:34:32 11° 304° (WNW) 07:35:44 437.305
GONETS M04 27 Nov 08:00:01 08:08:20 49° 89° (E) 08:16:42
Cubesat XI-IV 27 Nov 08:11:41 08:15:20 19° 295° (WNW) 08:18:58 437.490
HO-68 27 Nov 08:13:58 08:18:41 18° 93° (E) 08:23:21 435.675
AIST 1 27 Nov 08:20:27 08:22:57 15° 274° (W) 08:25:26
CANX-2 27 Nov 08:28:01 08:30:33 15° 93° (E) 08:33:04 2200.000
BRITE-PL 27 Nov 08:28:58 08:30:52 13° 93° (E) 08:32:47 437.365/2234.400
CUTE 1.7 + AOD 2 27 Nov 09:01:18 09:05:14 34° 98° (E) 09:09:10 437.475
CINEMA 3 27 Nov 09:09:50 09:11:31 12° 93° (E) 09:13:13 145.822/145.860
GOMX 1 27 Nov 09:29:50 09:33:54 50° 100° (E) 09:38:07 467.674
SEEDS 27 Nov 09:32:20 09:36:37 72° 101° (E) 09:40:53 437.485
UKube-1 27 Nov 09:33:11 09:36:26 20° 96° (E) 09:39:40 .
ANTELSAT 27 Nov 09:39:29 09:42:40 21° 69° (ENE) 09:45:52 437.575/2403.000
FUNcube-1 27 Nov 09:39:46 09:41:15 12° 93° (E) 09:42:45 145.935
POLYITAN 1 27 Nov 09:42:11 09:44:41 15° 67° (ENE) 09:47:11 437.675
Oscar 11 27 Nov 09:42:52 09:46:47 32° 97° (E) 09:50:41 145.826/435.025
QB50P2 27 Nov 09:43:31 09:46:07 16° 67° (ENE) 09:48:43 145.880/145.840
DELFI C3 27 Nov 09:45:10 09:48:45 28° 97° (E) 09:52:19 145.870
AAUSAT CUBESAT 2 27 Nov 09:46:24 09:50:39 78° 102° (ESE) 09:54:53 437.432
DUCHIFAT 1 27 Nov 09:48:21 09:51:12 18° 68° (ENE) 09:54:04 145.980
GONETS M04 27 Nov 09:57:42 10:05:19 32° 287° (WNW) 10:13:02
HO-68 27 Nov 09:59:45 10:06:53 70° 288° (WNW) 10:13:58 435.675
CANX-2 27 Nov 10:02:37 10:06:36 38° 287° (WNW) 10:10:34 2200.000
COMPASS 1 27 Nov 10:02:46 10:06:56 57° 285° (WNW) 10:11:06 437.405
BRITE-PL 27 Nov 10:05:41 10:09:33 40° 286° (WNW) 10:13:31 437.365/2234.400
NANOSAT C BR1 27 Nov 10:07:03 10:10:44 29° 71° (ENE) 10:14:25 145.865
UWE-3 27 Nov 10:07:20 10:11:08 31° 98° (E) 10:15:01 435.000/436.395/437.385
DX 1 27 Nov 10:09:19 10:13:36 57° 101° (E) 10:17:51 434.975-435.025
CUBEBUG 2 27 Nov 10:09:50 10:13:51 39° 99° (E) 10:17:58 437.445
HUMSAT D 27 Nov 10:12:52 10:15:38 17° 94° (E) 10:18:25 437.325/437.525
QB50P1 27 Nov 10:16:51 10:20:48 38° 73° (ENE) 10:24:44 145.935-145.965
DOVE 4 27 Nov 10:19:16 10:23:23 55° 285° (WNW) 10:27:38 437.250
BUGSAT 1 27 Nov 10:20:09 10:24:01 34° 72° (ENE) 10:27:51 437.445
TIGRISAT 27 Nov 10:31:30 10:35:45 86° 77° (ENE) 10:40:01 435.000
CUTE 1.7 + AOD 2 27 Nov 10:38:04 10:40:53 17° 292° (WNW) 10:43:41 437.475
ZACube-1 27 Nov 10:38:56 10:43:10 63° 101° (E) 10:47:29 437.345
POPSAT HIP 1 27 Nov 10:41:30 10:45:45 78° 76° (ENE) 10:50:01 437.405
CINEMA 3 27 Nov 10:44:50 10:48:55 47° 286° (WNW) 10:53:08 145.822/145.860
VELOX 1 27 Nov 10:45:24 10:49:37 42° 99° (E) 10:53:47 145.980
UNISAT 6 27 Nov 10:46:02 10:50:15 61° 259° (W) 10:54:29 437.425
ESTCUBE 1 27 Nov 10:50:04 10:53:06 18° 94° (E) 10:56:07 437.505/2401.250
UKube-1 27 Nov 11:08:51 11:12:34 29° 290° (WNW) 11:16:17 .
GOMX 1 27 Nov 11:10:21 11:11:38 11° 294° (WNW) 11:12:56 467.674
AISAT 27 Nov 11:12:25 11:16:51 88° 285° (WNW) 11:21:15 437.250
FUNcube-1 27 Nov 11:13:43 11:17:49 49° 286° (WNW) 11:22:00 145.935
ANTELSAT 27 Nov 11:15:41 11:19:18 27° 263° (W) 11:22:57 437.575/2403.000
POLYITAN 1 27 Nov 11:16:20 11:20:18 38° 261° (W) 11:24:17 437.675
QB50P2 27 Nov 11:17:47 11:21:43 37° 262° (W) 11:25:41 145.880/145.840
Oscar 11 27 Nov 11:19:39 11:22:42 19° 292° (WNW) 11:25:44 145.826/435.025
CUBEBUG 1 27 Nov 11:20:11 11:24:12 36° 98° (E) 11:28:11 437.445
DELFI C3 27 Nov 11:20:53 11:23:51 19° 291° (WNW) 11:26:48 145.870
DUCHIFAT 1 27 Nov 11:22:59 11:26:49 32° 262° (W) 11:30:39 145.980
50 SAT 27 Nov 11:26:24 11:30:27 70° 284° (WNW) 11:34:31 437.505
SO-50 27 Nov 11:37:07 11:40:20 17° 47° (NE) 11:43:33 436.795
NANOSAT C BR1 27 Nov 11:43:33 11:46:37 19° 265° (W) 11:49:41 145.865
UWE-3 27 Nov 11:44:27 11:47:28 19° 291° (WNW) 11:50:33 435.000/436.395/437.385
CUBEBUG 2 27 Nov 11:47:43 11:50:15 16° 292° (WNW) 11:52:49 437.445
HUMSAT D 27 Nov 11:47:46 11:51:29 32° 288° (WNW) 11:55:14 437.325/437.525
DX 1 27 Nov 11:48:03 11:49:19 11° 296° (WNW) 11:50:35 434.975-435.025
HO-68 27 Nov 11:51:19 11:53:17 11° 306° (NW) 11:55:15 435.675
QB50P1 27 Nov 11:54:26 11:56:49 15° 266° (W) 11:59:12 145.935-145.965
BUGSAT 1 27 Nov 11:56:51 11:59:34 16° 266° (W) 12:02:17 437.445
Oscar 19 27 Nov 12:22:50 12:26:44 23° 67° (ENE) 12:30:39 437.125/150
VELOX 1 27 Nov 12:23:19 12:25:49 15° 294° (WNW) 12:28:19 145.980
TISAT 1 27 Nov 12:23:33 12:27:37 46° 100° (E) 12:31:39 437.305
YUBILEINY 27 Nov 12:25:19 12:30:40 17° 66° (ENE) 12:35:58 435.215
ESTCUBE 1 27 Nov 12:25:55 12:30:04 36° 288° (WNW) 12:34:11 437.505/2401.250
SPROUT 27 Nov 12:37:57 12:42:12 62° 101° (E) 12:46:25 437.525
BEESAT 27 Nov 12:57:27 13:00:11 15° 93° (E) 13:02:55 436.000
CUBEBUG 1 27 Nov 12:57:29 13:00:16 17° 293° (WNW) 13:03:02 437.445
SO-50 27 Nov 13:16:26 13:21:15 59° 244° (WSW) 13:26:04 436.795
ITAMSAT 1 27 Nov 13:18:37 13:23:07 30° 69° (ENE) 13:27:38 435.822/435.867
PHONESAT 2.4 27 Nov 13:29:44 13:32:53 27° 147° (SSE) 13:36:04 2401.200-2431.200
CUSAT 1 27 Nov 13:30:12 13:32:44 34° 280° (W) 13:35:09 437.405
VERMONT LUNAR 27 Nov 13:34:12 13:37:36 41° 150° (SSE) 13:41:02 437.305
AUBIESAT-1 27 Nov 13:49:30 13:54:23 63° 105° (ESE) 13:59:02 437.475
ITUPSAT 1 27 Nov 13:52:27 13:57:13 61° 101° (E) 14:01:56 437.325
M-CUBED/EXP-1 PRIME 27 Nov 13:55:49 14:00:46 81° 107° (ESE) 14:05:31 437.505
Gurwin Techsat 1B 27 Nov 13:59:21 14:04:19 42° 71° (ENE) 14:09:18 435.225
Oscar 19 27 Nov 14:01:08 14:05:49 37° 262° (W) 14:10:32 437.125/150
TISAT 1 27 Nov 14:01:12 14:03:01 13° 294° (WNW) 14:04:49 437.305
SWISSCUBE 27 Nov 14:02:44 14:07:33 87° 104° (ESE) 14:12:20 437.505
DANDE 27 Nov 14:04:09 14:05:41 14° 283° (WNW) 14:07:09 436.750
YUBILEINY 27 Nov 14:19:46 14:28:30 84° 265° (W) 14:37:10 435.215
AO-7 27 Nov 14:21:10 14:27:02 22° 56° (ENE) 14:32:55 29.400- 29.500
BEESAT 27 Nov 14:33:39 14:38:15 47° 287° (WNW) 14:42:48 436.000
KKS-1 27 Nov 14:34:37 14:38:38 33° 98° (E) 14:42:38 437.445
HORYU 2 27 Nov 14:47:31 14:51:49 53° 74° (ENE) 14:56:08 437.375
ITAMSAT 1 27 Nov 14:58:06 15:02:31 28° 263° (W) 15:06:58 435.822/435.867
PHONESAT 2.4 27 Nov 15:07:49 15:11:30 67° 341° (NNW) 15:15:13 2401.200-2431.200
MaSat-1 27 Nov 15:08:02 15:11:02 56° 294° (WNW) 15:13:45 437.345
VERMONT LUNAR 27 Nov 15:12:32 15:16:04 50° 346° (NNW) 15:19:36 437.305
AUBIESAT-1 27 Nov 15:26:10 15:28:45 14° 300° (WNW) 15:31:18 437.475
STARS 27 Nov 15:26:40 15:31:05 89° 276° (W) 15:35:29 437.465
ITUPSAT 1 27 Nov 15:32:26 15:34:32 13° 296° (WNW) 15:36:39 437.325
M-CUBED/EXP-1 PRIME 27 Nov 15:33:27 15:35:03 12° 302° (WNW) 15:36:39 437.505
RS-15 27 Nov 15:36:30 15:47:08 57° 111° (ESE) 15:57:39 29.354- 29.394
JAS-2 27 Nov 15:39:24 15:45:01 23° 62° (ENE) 15:50:42 435.910
Gurwin Techsat 1B 27 Nov 15:40:33 15:44:24 20° 266° (W) 15:48:17 435.225
O/OREOS (USA 219) 27 Nov 16:03:12 16:07:41 75° 70° (ENE) 16:12:09 437.305
AO-7 27 Nov 16:10:38 16:18:55 78° 254° (WSW) 16:27:16 29.400- 29.500
KKS-1 27 Nov 16:11:53 16:15:01 19° 292° (WNW) 16:18:08 437.445
YUBILEINY 27 Nov 16:20:18 16:23:51 13° 283° (WNW) 16:27:25 435.215
HORYU 2 27 Nov 16:27:22 16:28:46 11° 268° (W) 16:30:10 437.375
PHONESAT 2.4 27 Nov 16:47:10 16:50:38 36° 358° (N) 16:54:06 2401.200-2431.200
VERMONT LUNAR 27 Nov 16:51:34 16:54:56 35° 3° (N) 16:58:19 437.305
CUTE-I 27 Nov 16:52:50 16:56:06 17° 64° (ENE) 16:59:21 437.470
JAS-2 27 Nov 17:21:37 17:29:11 73° 258° (WSW) 17:37:05 435.910
MOZHAYETS 4 27 Nov 17:27:18 17:31:58 72° 101° (ESE) 17:36:35
Cubesat XI-IV 27 Nov 17:49:28 17:54:44 59° 73° (ENE) 18:00:00 437.490
RS-15 27 Nov 17:49:48 17:59:47 39° 313° (NW) 18:09:52 29.354- 29.394
PRISM 27 Nov 18:02:16 18:05:51 26° 97° (E) 18:09:23 437.425
AO-7 27 Nov 18:10:14 18:12:46 12° 270° (W) 18:15:19 29.400- 29.500
GONETS M04 27 Nov 18:15:17 18:21:24 20° 68° (ENE) 18:27:27
PCSat 27 Nov 18:21:23 18:24:59 18° 105° (ESE) 18:28:36 145.827
PHONESAT 2.4 27 Nov 18:26:10 18:29:50 54° 15° (NNE) 18:33:28 2401.200-2431.200
VERMONT LUNAR 27 Nov 18:30:06 18:33:44 70° 19° (NNE) 18:37:21 437.305
CUTE-I 27 Nov 18:30:23 18:35:39 57° 259° (W) 18:40:55 437.470
BEESAT 3 27 Nov 18:39:39 18:40:21 10° 107° (ESE) 18:41:03 437.485
HO-68 27 Nov 18:43:49 18:45:04 11° 53° (NE) 18:46:19 435.675
STRAND 1 27 Nov 18:49:32 18:54:07 33° 98° (E) 18:58:40 437.568
BEESAT 2 27 Nov 18:54:50 18:57:11 15° 109° (ESE) 18:59:33 435.950
MOZHAYETS 4 27 Nov 19:07:56 19:08:32 10° 296° (WNW) 19:09:08
AIST 1 27 Nov 19:08:26 19:12:02 25° 89° (E) 19:15:40
JAS-2 27 Nov 19:13:21 19:15:16 11° 274° (W) 19:17:11 435.910
CUBESAT XI-V 27 Nov 19:13:46 19:18:25 68° 101° (E) 19:23:00 437.345
Cubesat XI-IV 27 Nov 19:32:16 19:35:09 15° 268° (W) 19:38:03 437.490
AIST 2 27 Nov 19:36:29 19:39:41 21° 110° (ESE) 19:42:56 435.215
BRITE-PL 27 Nov 19:37:15 19:39:48 14° 68° (ENE) 19:42:15 437.365/2234.400
PRISM 27 Nov 19:38:00 19:41:13 21° 291° (WNW) 19:44:25 437.425
CUTE 1.7 + AOD 2 27 Nov 19:52:37 19:55:26 18° 68° (ENE) 19:58:15 437.475
PCSat 27 Nov 20:02:42 20:07:56 51° 300° (WNW) 20:13:13 145.827
PHONESAT 2.4 27 Nov 20:05:06 20:08:35 39° 210° (SSW) 20:12:02 2401.200-2431.200
VERMONT LUNAR 27 Nov 20:08:59 20:12:00 25° 214° (SW) 20:15:00 437.305
GONETS M04 27 Nov 20:10:16 20:19:05 76° 266° (W) 20:27:48
RS-15 27 Nov 20:11:41 20:16:38 14° 345° (NNW) 20:21:38 29.354- 29.394
BEESAT 3 27 Nov 20:14:01 20:18:02 55° 302° (WNW) 20:22:07 437.485
SEEDS 27 Nov 20:22:09 20:25:54 33° 72° (ENE) 20:29:41 437.485
HO-68 27 Nov 20:24:19 20:31:24 66° 71° (ENE) 20:38:31 435.675
UKube-1 27 Nov 20:26:58 20:29:00 13° 65° (ENE) 20:31:02 .
STRAND 1 27 Nov 20:29:01 20:33:06 25° 292° (WNW) 20:37:10 437.568
BEESAT 2 27 Nov 20:31:13 20:35:05 40° 304° (WNW) 20:39:02 435.950
DELFI C3 27 Nov 20:32:56 20:34:47 13° 67° (ENE) 20:36:38 145.870
AAUSAT CUBESAT 2 27 Nov 20:35:08 20:38:53 34° 73° (ENE) 20:42:41 437.432
GOMX 1 27 Nov 20:35:09 20:39:37 41° 74° (ENE) 20:43:50 467.674
Oscar 11 27 Nov 20:35:48 20:38:43 18° 68° (ENE) 20:41:39 145.826/435.025
AIST 1 27 Nov 20:46:11 20:49:37 22° 284° (WNW) 20:53:04
COMPASS 1 27 Nov 20:51:22 20:55:29 64° 76° (ENE) 20:59:38 437.405
CANX-2 27 Nov 20:52:24 20:56:36 79° 258° (WSW) 21:00:51 2200.000
CUBESAT XI-V 27 Nov 20:54:09 20:55:14 11° 296° (WNW) 20:56:18 437.345
DX 1 27 Nov 21:02:16 21:06:13 34° 71° (ENE) 21:10:11 434.975-435.025
UWE-3 27 Nov 21:03:04 21:05:54 18° 69° (ENE) 21:08:43 435.000/436.395/437.385
CUBEBUG 2 27 Nov 21:06:19 21:09:39 23° 70° (ENE) 21:12:56 437.445
BRITE-PL 27 Nov 21:13:00 21:17:57 53° 260° (W) 21:22:32 437.365/2234.400
AIST 2 27 Nov 21:14:23 21:18:07 30° 306° (NW) 21:21:55 435.215
DOVE 4 27 Nov 21:21:56 21:26:35 79° 258° (WSW) 21:30:58 437.250
CUTE 1.7 + AOD 2 27 Nov 21:27:20 21:31:06 32° 263° (W) 21:34:54 437.475
ZACube-1 27 Nov 21:32:44 21:36:30 33° 72° (ENE) 21:40:15 437.345
VELOX 1 27 Nov 21:40:48 21:44:35 28° 70° (ENE) 21:48:22 145.980
CINEMA 3 27 Nov 21:43:44 21:48:08 75° 258° (WSW) 21:52:23 145.822/145.860
ESTCUBE 1 27 Nov 21:48:32 21:50:23 12° 65° (ENE) 21:52:14 437.505/2401.250
ISS 27 Nov 21:51:37 21:54:09 21° 130° (SE) 21:56:40 145.825
SEEDS 27 Nov 21:59:10 22:01:49 16° 266° (W) 22:04:28 437.485
UKube-1 27 Nov 22:00:30 22:04:43 49° 260° (W) 22:08:57 .
DELFI C3 27 Nov 22:05:49 22:09:40 42° 261° (W) 22:13:34 145.870
FUNcube-1 27 Nov 22:06:44 22:10:57 88° 77° (ENE) 22:15:07 145.935
AISAT 27 Nov 22:07:35 22:11:59 57° 74° (ENE) 22:16:22 437.250
Oscar 11 27 Nov 22:10:45 22:14:37 33° 263° (W) 22:18:31 145.826/435.025
GONETS M04 27 Nov 22:11:58 22:14:16 11° 284° (WNW) 22:16:34
AAUSAT CUBESAT 2 27 Nov 22:12:12 22:14:40 15° 267° (W) 22:17:09 437.432
50 SAT 27 Nov 22:12:24 22:16:16 47° 74° (ENE) 22:20:08 437.505
CUBEBUG 1 27 Nov 22:14:11 22:17:37 22° 69° (ENE) 22:21:04 437.445
HO-68 27 Nov 22:14:34 22:19:32 20° 266° (W) 22:24:33 435.675
GOMX 1 27 Nov 22:14:54 22:17:49 16° 265° (W) 22:20:39 467.674
TIGRISAT 27 Nov 22:26:51 22:30:24 23° 96° (E) 22:33:59 435.000
RS-15 27 Nov 22:29:30 22:35:59 17° 24° (NNE) 22:42:35 29.354- 29.394
POPSAT HIP 1 27 Nov 22:31:35 22:34:11 16° 94° (E) 22:36:46 437.405
HUMSAT D 27 Nov 22:36:45 22:40:51 67° 259° (WSW) 22:44:57 437.325/437.525
UWE-3 27 Nov 22:38:27 22:42:13 31° 262° (W) 22:45:57 435.000/436.395/437.385
DX 1 27 Nov 22:39:34 22:42:31 18° 265° (W) 22:45:29 434.975-435.025
JUGNU 27 Nov 22:40:32 22:42:59 13° 168° (SSE) 22:45:26 437.505
UNISAT 6 27 Nov 22:41:12 22:45:17 34° 98° (E) 22:49:26 437.425
CUBEBUG 2 27 Nov 22:42:46 22:46:14 24° 264° (W) 22:49:40 437.445
DANDE 27 Nov 23:02:01 23:05:16 17° 77° (ENE) 23:09:03 436.750
POLYITAN 1 27 Nov 23:05:12 23:09:13 41° 99° (E) 23:13:13 437.675
QB50P2 27 Nov 23:06:23 23:10:25 43° 99° (E) 23:14:27 145.880/145.840
ANTELSAT 27 Nov 23:09:53 23:14:23 74° 102° (ESE) 23:18:58 437.575/2403.000
ZACube-1 27 Nov 23:10:19 23:12:57 16° 266° (W) 23:15:34 437.345
DUCHIFAT 1 27 Nov 23:11:03 23:15:08 48° 100° (E) 23:19:11 145.980
TISAT 1 27 Nov 23:13:51 23:17:19 25° 70° (ENE) 23:20:47 437.305
VELOX 1 27 Nov 23:17:34 23:21:06 23° 264° (W) 23:24:39 145.980
ESTCUBE 1 27 Nov 23:22:16 23:26:44 57° 259° (W) 23:31:14 437.505/2401.250
ISS 27 Nov 23:27:40 23:30:38 31° 324° (NW) 23:33:37 145.825
SPROUT 27 Nov 23:29:35 23:33:26 32° 72° (ENE) 23:37:17 437.525
NANOSAT C BR1 27 Nov 23:30:42 23:34:56 86° 103° (ESE) 23:39:09 145.865
QB50P1 27 Nov 23:40:56 23:45:08 70° 284° (WNW) 23:49:20 145.935-145.965
BUGSAT 1 27 Nov 23:40:58 23:45:03 87° 283° (WNW) 23:49:05 437.445
AISAT 27 Nov 23:47:52 23:48:55 11° 268° (W) 23:49:58 437.250
CUBEBUG 1 27 Nov 23:50:00 23:53:49 28° 263° (W) 23:57:40 437.445
50 SAT 27 Nov 23:51:06 23:51:48 10° 268° (W) 23:52:30 437.505
BEESAT 28 Nov 00:02:10 00:04:25 13° 64° (ENE) 00:06:41 436.000
TIGRISAT 28 Nov 00:03:17 00:07:05 28° 289° (WNW) 00:10:58 435.000
POPSAT HIP 1 28 Nov 00:06:20 00:10:10 34° 288° (WNW) 00:13:59 437.405
CUSAT 1 28 Nov 00:08:33 00:13:43 84° 82° (E) 00:20:38 437.405
UNISAT 6 28 Nov 00:18:38 00:21:50 20° 291° (WNW) 00:25:05 437.425
JUGNU 28 Nov 00:27:32 00:31:14 17° 178° (S) 00:34:57 437.505
AUBIESAT-1 28 Nov 00:36:14 00:40:08 48° 68° (ENE) 00:44:24 437.475
RS-15 28 Nov 00:40:59 00:51:53 52° 53° (NE) 01:03:13 29.354- 29.394
POLYITAN 1 28 Nov 00:42:33 00:44:47 14° 293° (WNW) 00:47:01 437.675
SRMSAT 28 Nov 00:42:34 00:45:50 15° 171° (S) 00:49:07 437.500
M-CUBED/EXP-1 PRIME 28 Nov 00:42:52 00:46:51 64° 70° (ENE) 00:51:14 437.505
DANDE 28 Nov 00:43:42 00:48:36 55° 263° (W) 00:55:10 436.750
QB50P2 28 Nov 00:43:49 00:45:57 14° 293° (WNW) 00:48:05 145.880/145.840
MaSat-1 28 Nov 00:48:46 00:51:06 88° 265° (W) 00:53:34 437.345
DUCHIFAT 1 28 Nov 00:48:50 00:50:33 12° 294° (WNW) 00:52:16 145.980
TISAT 1 28 Nov 00:49:39 00:53:03 23° 264° (W) 00:56:28 437.305
ITUPSAT 1 28 Nov 00:56:23 01:01:00 49° 73° (ENE) 01:05:40 437.325
SWISSCUBE 28 Nov 01:06:19 01:11:05 71° 75° (ENE) 01:15:54 437.505
SPROUT 28 Nov 01:06:36 01:09:33 18° 266° (W) 01:12:30 437.525
YUBILEINY 28 Nov 01:22:50 01:29:07 22° 82° (E) 01:35:23 435.215
KKS-1 28 Nov 01:30:40 01:34:04 22° 69° (ENE) 01:37:28 437.445
ITAMSAT 1 28 Nov 01:36:07 01:38:30 13° 92° (E) 01:40:52 435.822/435.867
BEESAT 28 Nov 01:37:01 01:41:44 58° 259° (W) 01:46:28 436.000
CUSAT 1 28 Nov 01:55:19 01:56:43 11° 270° (W) 01:58:11 437.405
AUBIESAT-1 28 Nov 02:13:51 02:15:29 12° 265° (W) 02:17:11 437.475
Oscar 19 28 Nov 02:15:14 02:20:25 83° 284° (WNW) 02:25:36 437.125/150
JUGNU 28 Nov 02:16:20 02:19:31 15° 189° (S) 02:22:42 437.505
Gurwin Techsat 1B 28 Nov 02:19:19 02:23:21 22° 95° (E) 02:27:21 435.225
STARS 28 Nov 02:20:54 02:25:11 54° 74° (ENE) 02:29:29 437.465
SRMSAT 28 Nov 02:30:28 02:34:17 18° 182° (S) 02:38:06 437.500
ITUPSAT 1 28 Nov 02:36:30 02:39:08 15° 267° (W) 02:41:46 437.325
HORYU 2 28 Nov 02:43:56 02:46:09 13° 93° (E) 02:48:22 437.375
RS-15 28 Nov 02:53:40 03:04:02 43° 252° (WSW) 03:14:51 29.354- 29.394
KKS-1 28 Nov 03:06:40 03:10:32 29° 263° (W) 03:14:24 437.445
ITAMSAT 1 28 Nov 03:13:14 03:18:20 61° 286° (WNW) 03:23:24 435.822/435.867
YUBILEINY 28 Nov 03:16:18 03:25:03 67° 279° (W) 03:33:48 435.215
SO-50 28 Nov 03:28:09 03:32:38 86° 299° (WNW) 03:37:16 436.795
